[[{"header":{"parameterUnit":"m.s-1","parameterCategory":1,"la1":30.2991,"la2":30.254,"lo1":-89.0895,"lo2":-89.0444,"dy":0.0017,"dx":0.0017,"nx":28,"ny":28,"refTime":"2025-03-31T21:00:00:Z","depth":0,"parameterNumber":2,"parameterNumberName":"U-component_of_WINDS"},"data":[0,0,0,0,0,0,0,0,0,0,0,0,0,0,0,0,0,0,0,0,0,0,0,0,0,0,0,0,0,0,0,0,0,0,0,0,0,0,0,0,0,0,0,0,0,0,0,0,0,0,0,0,0,0,0,0,0,0,-5.1953,-5.1955,0,-5.2082,-5.2083,-5.2085,-5.206,-5.2058,-5.2055,-5.2053,-5.2182,-5.2187,-5.2193,0,0,0,0,0,0,0,0,0,0,0,0,0,-5.1684,-5.1689,-5.1953,-5.1955,-5.1957,-5.2082,-5.2084,-5.2085,-5.206,-5.2057,-5.2055,-5.2052,-5.218,-5.2187,-5.2193,0,0,0,0,0,0,0,0,0,0,0,0,0,-5.1806,-5.1691,-5.1953,-5.1959,-5.1961,-5.2081,-5.2084,-5.2086,-5.2061,-5.2057,-5.2054,-5.2051,-5.2178,-5.2186,-5.2194,-5.2316,0,0,-5.222,-5.2224,0,0,0,0,0,0,0,0,-5.1799,-5.1816,-5.1957,-5.1959,-5.1961,-5.2051,-5.2036,-5.2163,-5.2062,-5.2023,-5.2053,-5.2049,-5.2141,-5.2152,-5.2184,-5.2322,-5.2327,-5.2221,-5.2226,-5.2229,-5.2232,0,0,0,0,0,0,0,-5.179,-5.181,-5.2004,-5.1959,-5.1962,-5.1955,-5.1968,-5.206,-5.21,-5.2026,-5.2024,-5.204,-5.2142,-5.2176,-5.2187,-5.2329,-5.222,-5.2228,-5.2233,-5.2236,-5.2573,-5.2577,0,0,0,0,0,0,-5.178,-5.1803,-5.2,-5.2008,-5.187,-5.1963,-5.1978,-5.2026,-5.2099,-5.2107,-5.2043,-5.2039,-5.2163,-5.2177,-5.2191,-5.2337,-5.2229,-5.2237,-5.2242,-5.2569,-5.2574,-5.2578,0,0,0,0,0,0,-5.1775,-5.1798,-5.1995,-5.1905,-5.193,-5.1971,-5.2025,-5.203,-5.2064,-5.2112,-5.2118,-5.2071,-5.2161,-5.2179,-5.2285,-5.2341,-5.2241,-5.2249,-5.2564,-5.257,-5.2576,-5.263,0,0,0,0,0,0,-5.1767,-5.1796,-5.1843,-5.1907,-5.1935,-5.2087,-5.2029,-5.2035,-5.2079,-5.2075,-5.2139,-5.2147,-5.216,-5.2273,-5.2293,-5.2351,-5.2255,-5.2559,-5.2567,-5.2574,-5.2624,-5.2637,-5.2649,0,0,0,0,0,-5.1757,-5.1853,-5.1845,-5.1869,-5.1994,-5.209,-5.2106,-5.212,-5.2084,-5.2131,-5.2162,-5.2145,-5.2333,-5.2284,-5.2307,-5.2368,-5.2556,-5.2565,-5.2573,-5.2618,-5.2635,-5.2649,0,0,0,0,0,0,-5.1793,-5.1861,-5.1854,-5.1972,-5.2026,-5.2086,-5.2145,-5.2137,-5.2201,-5.2194,-5.2208,-5.2223,-5.233,-5.236,-5.2304,-5.2489,-5.2439,-5.2453,-5.2465,-5.2481,-5.2494,-5.2483,-5.2262,0,0,0,0,0,-5.1815,-5.1888,-5.1944,-5.2043,-5.207,-5.2104,-5.2146,-5.2152,-5.2208,-5.223,-5.2268,-5.2322,-5.2393,-5.2439,-5.2507,-5.2629,-5.2642,-5.2683,-5.2695,-5.2706,-5.2716,-5.2782,-5.28,-5.2607,-5.2607,-5.2606,0,0,-5.186,-5.1907,-5.1952,-5.2051,-5.2093,-5.2168,-5.2123,-5.2203,-5.2259,-5.2242,-5.2343,-5.2374,-5.2435,-5.2549,-5.2601,-5.2577,-5.2774,-5.2717,-5.2725,-5.273,-5.2793,-5.2811,-5.2828,-5.2613,-5.2612,-5.2611,0,0,-5.1981,-5.2024,-5.2111,-5.2155,-5.222,-5.2242,-5.2263,-5.2325,-5.2345,-5.2448,-5.2437,-5.2503,-5.2625,-5.2669,-5.2707,-5.2847,-5.2833,-5.2869,-5.2934,-5.2998,-5.3013,-5.3027,-5.3075,-5.3092,-5.288,-5.2881,-5.2881,0,-5.2028,-5.2141,-5.2157,-5.2239,-5.2283,-5.2273,-5.2361,-5.2403,-5.2486,-5.2516,-5.2489,-5.2643,-5.2684,-5.2807,-5.2842,-5.2874,-5.2897,-5.286,-5.301,-5.3024,-5.3037,-5.3082,-5.3101,-5.2884,-5.2884,-5.2883,-5.2883,0,-5.2196,-5.2275,-5.2337,-5.2419,-5.247,-5.2555,-5.2583,-5.2633,-5.2636,-5.2661,-5.2765,-5.2815,-5.2892,-5.2923,-5.2926,-5.3047,-5.303,-5.3007,-5.2956,-5.3059,-5.3102,-5.312,-5.289,-5.2888,-5.2887,-5.2886,0,0,-5.2339,-5.243,-5.2453,-5.249,-5.2562,-5.2623,-5.2708,-5.2785,-5.2827,-5.2886,-5.2956,-5.3061,-5.304,-5.3084,-5.3092,-5.3149,-5.3254,-5.3118,-5.312,-5.314,-5.3389,-5.3404,-5.3425,-5.3247,-5.3251,-5.3254,-5.3384,0,-5.2464,-5.2614,-5.2631,-5.2764,-5.2836,-5.283,-5.2903,-5.2955,-5.2981,-5.3046,-5.3075,-5.3148,-5.3116,-5.3142,-5.3198,-5.3229,-5.3304,-5.3221,-5.3311,-5.3314,-5.3293,-5.3448,-5.3464,-5.3584,-5.3401,-5.3404,-5.3406,0,-5.2629,-5.2694,-5.2834,-5.2897,-5.2928,-5.2994,-5.3066,-5.3129,-5.3188,-5.3203,-5.3253,-5.3254,-5.3341,-5.329,-5.3409,-5.3352,-5.339,-5.3412,-5.3417,-5.3423,-5.3364,-5.3455,-5.3623,-5.3639,-5.3433,-5.3431,-5.3429,0,-5.2717,-5.2839,-5.2939,-5.2971,-5.3048,-5.3094,-5.3128,-5.3184,-5.3229,-5.3293,-5.3322,-5.3395,-5.3434,-5.349,-5.351,-5.3472,-5.3628,-5.3579,-5.3641,-5.3641,-5.3672,-5.3669,-5.3844,-5.3702,-5.3701,-5.3701,-5.3701,0,-5.2853,-5.2939,-5.2979,-5.304,-5.3136,-5.3156,-5.325,-5.3282,-5.3332,-5.3398,-5.3398,-5.346,-5.3485,-5.3552,-5.3569,-5.3664,-5.3682,-5.3696,-5.3698,-5.3694,-5.3692,-5.3717,-5.3708,-5.3706,-5.3705,-5.3704,-5.3703,0,-5.2965,-5.2996,-5.3104,-5.3169,-5.3187,-5.3254,-5.3309,-5.3367,-5.3394,-5.3478,-5.3499,-5.354,-5.3618,-5.3646,-5.374,-5.3752,-5.3862,-5.3859,-5.3842,-5.3842,-5.3902,-5.3895,-5.4097,-5.4124,-5.3966,-5.3967,-5.3969,0,-5.3049,-5.3115,-5.3186,-5.3231,-5.3267,-5.334,-5.3387,-5.341,-5.3458,-5.3531,-5.3581,-5.3659,-5.3722,-5.3848,-5.3885,-5.3958,-5.3955,-5.4021,-5.3965,-5.3959,-5.3953,-5.3948,-5.3953,-5.403,-5.4032,-5.4033,-5.4034,0,-5.3193,-5.3205,-5.3273,-5.3347,-5.3403,-5.3462,-5.3519,-5.3556,-5.3588,-5.3642,-5.3723,-5.3772,-5.387,-5.3946,-5.4021,-5.4055,-5.4049,-5.4052,-5.407,-5.4064,-5.405,-5.4056,-5.3867,-5.4046,-5.4045,-5.4044,-5.4043,-5.4043,-5.3292,-5.335,-5.3409,-5.3485,-5.3531,-5.3585,-5.3643,-5.3678,-5.3745,-5.3827,-5.3837,-5.3923,-5.3981,-5.4081,-5.4118,-5.4186,-5.4167,-5.4193,-5.42,-5.4205,-5.4208,-5.4043,-5.42,-5.4199,-5.4199,-5.4199,-5.4199,0,-5.3433,-5.3472,-5.3542,-5.3622,-5.3682,-5.3675,-5.3738,-5.3787,-5.3864,-5.3919,-5.3982,-5.4074,-5.4149,-5.4194,-5.4269,-5.4314,-5.4314,-5.4333,-5.4328,-5.4336,-5.4222,-5.4198,-5.4332,-5.4332,-5.4332,-5.4332,-5.4332,-5.4332,-5.3514,-5.3611,-5.3631,-5.3751,-5.379,-5.3875,-5.3911,-5.396,-5.4005,-5.4108,-5.4171,-5.42,-5.4251,-5.433,-5.4399,-5.441,-5.4436,-5.4457,-5.4466,-5.4358,-5.4344,-5.4331,-5.4308,-5.4463,-5.4464,-5.4574,-5.4575,-5.4576]},{"header":{"parameterUnit":"m.s-1","parameterCategory":1,"la1":30.2991,"la2":30.254,"lo1":-89.0895,"lo2":-89.0444,"dy":0.0017,"dx":0.0017,"nx":28,"ny":28,"refTime":"2025-03-31T21:00:00:Z","depth":0,"parameterNumber":3,"parameterNumberName":"V-component_of_WINDS"},"data":[0,0,0,0,0,0,0,0,0,0,0,0,0,0,0,0,0,0,0,0,0,0,0,0,0,0,0,0,0,0,0,0,0,0,0,0,0,0,0,0,0,0,0,0,0,0,0,0,0,0,0,0,0,0,0,0,0,0,3.6456,3.6457,0,3.6572,3.6574,3.6575,3.6583,3.6581,3.658,3.6579,3.6693,3.6697,3.6701,0,0,0,0,0,0,0,0,0,0,0,0,0,3.6239,3.6242,3.6456,3.6457,3.6459,3.6572,3.6574,3.6575,3.6583,3.6581,3.658,3.6578,3.6692,3.6697,3.6702,0,0,0,0,0,0,0,0,0,0,0,0,0,3.6341,3.6244,3.6456,3.6477,3.648,3.6572,3.6574,3.6576,3.6583,3.6581,3.6579,3.6578,3.669,3.6696,3.6703,3.678,0,0,3.6722,3.6725,0,0,0,0,0,0,0,0,3.6336,3.6349,3.6472,3.6475,3.6479,3.6561,3.6539,3.6644,3.6584,3.6544,3.6579,3.6577,3.665,3.666,3.6686,3.6786,3.6791,3.6722,3.6726,3.6729,3.6731,0,0,0,0,0,0,0,3.6328,3.6344,3.6502,3.6474,3.6478,3.6479,3.6492,3.6559,3.6606,3.6547,3.6548,3.6562,3.6652,3.668,3.6689,3.6792,3.6722,3.6728,3.6732,3.6734,3.6965,3.6967,0,0,0,0,0,0,3.6318,3.6338,3.6498,3.6505,3.6401,3.6485,3.6499,3.6537,3.6606,3.6614,3.6563,3.6562,3.667,3.6681,3.6693,3.679,3.6729,3.6735,3.6739,3.6962,3.6965,3.6968,0,0,0,0,0,0,3.6313,3.6332,3.6493,3.6422,3.6443,3.6491,3.6533,3.654,3.6568,3.6618,3.6626,3.6583,3.6669,3.6684,3.6759,3.6794,3.6738,3.6744,3.696,3.6963,3.6966,3.6985,0,0,0,0,0,0,3.6307,3.633,3.6361,3.6423,3.6447,3.6559,3.6535,3.6544,3.6579,3.6578,3.6639,3.6647,3.6668,3.675,3.6766,3.6802,3.6749,3.6957,3.6961,3.6965,3.6981,3.6988,3.6994,0,0,0,0,0,3.6299,3.636,3.6362,3.6381,3.6486,3.6561,3.6575,3.6599,3.6582,3.6613,3.6646,3.6645,3.6788,3.6758,3.6775,3.6814,3.6955,3.696,3.6965,3.6978,3.6987,3.6994,0,0,0,0,0,0,3.6298,3.6368,3.6372,3.6454,3.6502,3.6562,3.6602,3.6607,3.6659,3.6656,3.6683,3.6697,3.6772,3.6801,3.6766,3.6894,3.6869,3.6878,3.6873,3.6882,3.6888,3.688,3.6754,0,0,0,0,0,3.6307,3.6364,3.6422,3.6489,3.6513,3.6554,3.6587,3.6602,3.6652,3.6672,3.671,3.6757,3.6813,3.6849,3.6903,3.6985,3.6999,3.7021,3.7027,3.7033,3.704,3.7088,3.7099,3.6985,3.6985,3.6984,0,0,3.6327,3.6373,3.6406,3.649,3.6529,3.6586,3.657,3.663,3.6673,3.668,3.6755,3.6785,3.684,3.692,3.6957,3.6946,3.7075,3.7039,3.7043,3.7048,3.7094,3.7105,3.7115,3.6988,3.6987,3.6987,0,0,3.6393,3.6433,3.6494,3.6534,3.6594,3.6621,3.6636,3.6697,3.6718,3.6794,3.6801,3.6852,3.6946,3.6986,3.7018,3.7103,3.7104,3.7119,3.7154,3.72,3.7209,3.7217,3.7249,3.7259,3.7126,3.7127,3.7127,0,3.6409,3.6497,3.6525,3.6587,3.6624,3.6636,3.6698,3.6735,3.6809,3.6834,3.6821,3.6943,3.698,3.7071,3.7092,3.7117,3.7135,3.7112,3.7206,3.7214,3.7222,3.7252,3.7264,3.7128,3.7128,3.7128,3.7128,0,3.6516,3.6577,3.6619,3.6693,3.6735,3.6796,3.6833,3.6872,3.6885,3.6913,3.6991,3.7037,3.7102,3.7124,3.7135,3.7217,3.7209,3.72,3.7176,3.7234,3.7263,3.7275,3.713,3.713,3.7129,3.7129,0,0,3.6582,3.6673,3.6688,3.6723,3.6791,3.6838,3.6901,3.6967,3.7,3.7051,3.7105,3.7186,3.718,3.7217,3.7233,3.7274,3.734,3.7261,3.7263,3.7275,3.7435,3.7441,3.7454,3.7342,3.7344,3.7346,3.743,0,3.6656,3.677,3.6798,3.6895,3.6953,3.6966,3.7021,3.7068,3.7097,3.7149,3.718,3.7239,3.7225,3.7248,3.7289,3.7323,3.7372,3.7317,3.7392,3.7394,3.7378,3.7469,3.7475,3.7553,3.7442,3.7444,3.7445,0,3.6758,3.6814,3.6918,3.6981,3.7006,3.7055,3.7119,3.7169,3.7223,3.7242,3.7285,3.7298,3.7363,3.7336,3.7427,3.739,3.7422,3.7443,3.7447,3.7455,3.7423,3.748,3.7578,3.759,3.7463,3.7461,3.746,0,3.6798,3.6899,3.6975,3.7004,3.7079,3.7114,3.7147,3.72,3.7238,3.7293,3.7319,3.738,3.7413,3.746,3.7489,3.7466,3.7579,3.7554,3.7596,3.7596,3.7619,3.7617,3.7724,3.7639,3.7639,3.7639,3.7638,0,3.6878,3.6941,3.6994,3.7041,3.7112,3.7144,3.7214,3.7246,3.7294,3.7347,3.7361,3.741,3.7446,3.75,3.7523,3.7596,3.7611,3.7627,3.7633,3.7627,3.7625,3.7648,3.7644,3.7642,3.7641,3.764,3.764,0,3.6934,3.6972,3.7056,3.7122,3.714,3.719,3.7246,3.7292,3.7322,3.7389,3.7407,3.7454,3.7518,3.7553,3.7632,3.7648,3.7731,3.7733,3.7713,3.7716,3.7757,3.7753,3.7883,3.7902,3.7803,3.7804,3.7805,0,3.6983,3.7033,3.7105,3.7143,3.7177,3.7237,3.7277,3.7311,3.7352,3.742,3.7457,3.7524,3.7578,3.7681,3.7722,3.7784,3.7788,3.7829,3.7797,3.779,3.779,3.7787,3.7792,3.7835,3.7835,3.7836,3.7837,0,3.7067,3.7084,3.7142,3.7209,3.7257,3.731,3.7362,3.7391,3.7433,3.7479,3.7547,3.7589,3.7673,3.7739,3.7804,3.7837,3.7844,3.7847,3.786,3.7855,3.7842,3.7851,3.773,3.7844,3.7843,3.7842,3.7842,3.7842,3.7122,3.7168,3.7227,3.7292,3.7335,3.7384,3.7432,3.7469,3.7527,3.7599,3.7615,3.7687,3.7742,3.7831,3.7866,3.7923,3.7914,3.7933,3.7938,3.7942,3.7945,3.7833,3.7934,3.7934,3.7934,3.7934,3.7934,0,3.7208,3.7247,3.7307,3.7381,3.7433,3.7437,3.7496,3.7538,3.7602,3.7654,3.7709,3.7787,3.7852,3.7899,3.7964,3.8001,3.8006,3.8017,3.8015,3.8023,3.7948,3.7931,3.8012,3.8012,3.8012,3.8012,3.8012,3.8012,3.7258,3.7337,3.7361,3.7461,3.75,3.7572,3.7606,3.7651,3.7693,3.7781,3.7836,3.7867,3.7917,3.7987,3.8047,3.8059,3.8082,3.8094,3.8106,3.8036,3.8027,3.802,3.8003,3.8098,3.8098,3.8176,3.8177,3.8177]}]]